Weather History for KAUW - March, 2012

Change the Weather History Date:

Wednesday, March 28, 2012

  Actual Average Record
Temperature  
Mean Temperature 45 °F 35 °F  
Max Temperature 53 °F 45 °F 75 °F (1986)
Min Temperature 36 °F 25 °F -4 °F (1923)
Degree Days  
Heating Degree Days 20 30  
Month to date heating degree days 519 998  
Since 1 July heating degree days 5857 7134  
Cooling Degree Days 0 0  
Month to date cooling degree days 10 0  
Year to date cooling degree days 10 0  
Moisture  
Dew Point 32 °F    
Average Humidity 56    
Maximum Humidity 71    
Minimum Humidity 41    
Precipitation  
Precipitation 0.00 in 0.06 in 0.98 in (1920)
Month to date precipitation 0.93 1.56  
Year to date precipitation 3.35 3.50  
Snow  
Snow 0.00 in 0.30 in 7.50 in (1931)
Month to date snowfall 1.6 9.4  
Since 1 July snowfall 38.4 54.7  
Snow Depth 0.00 in    
Sea Level Pressure  
Sea Level Pressure 29.85 in    
Wind  
Wind Speed 13 mph (NW)    
Max Wind Speed 24 mph    
Max Gust Speed 32 mph    
Visibility 10 miles    
Events      
T = Trace of Precipitation, MM = Missing Value Source: NWS Daily Summary

Daily Weather History Graph

Daily Weather History Graph

Search for Another Location

Airport or City:

Trip Planner

Search our weather history database for the weather conditions in past years. The results will help you decide how hot, cold, wet, or windy it might be!

Date:

Astronomy

Mar. 28, 2012 Rise Set
Actual Time 6:45 AM CDT 7:21 PM CDT
Civil Twilight 6:16 AM CDT 7:51 PM CDT
Nautical Twilight 5:41 AM CDT 8:26 PM CDT
Astronomical Twilight 5:05 AM CDT 9:02 PM CDT
Moon 9:49 AM CDT 12:37 AM CDT
Length of Visible Light 13h 35m
Length of Day
12h 36m
Waxing Crescent, 30% of the Moon is Illuminated
Mar 28
Waxing Crescent
Mar 30
First Quarter
Apr 6
Full
Apr 13
Last Quarter
Apr 21
New

Hourly Weather History & Observations

Time (CDT) Temp. Windchill Dew Point Humidity Pressure Visibility Wind Dir Wind Speed Gust Speed Precip Events Conditions
12:54 AM 51.1 °F - 37.9 °F 61% 29.68 in 10.0 mi West 20.7 mph 28.8 mph N/A   Mostly Cloudy
1:54 AM 48.0 °F - 37.9 °F 68% 29.68 in 10.0 mi West 20.7 mph 26.5 mph N/A   Clear
2:54 AM 48.0 °F - 37.0 °F 66% 29.68 in 10.0 mi West 18.4 mph 29.9 mph N/A   Overcast
3:54 AM 46.9 °F - 37.0 °F 68% 29.69 in 10.0 mi West 20.7 mph 28.8 mph N/A   Overcast
4:15 AM 46.4 °F 39.5 °F 37.4 °F 71% 29.67 in 10.0 mi West 17.3 mph - N/A   Overcast
4:29 AM 46.4 °F 39.5 °F 35.6 °F 66% 29.68 in 10.0 mi West 17.3 mph 27.6 mph N/A   Overcast
4:54 AM 46.0 °F 39.3 °F 36.0 °F 68% 29.70 in 10.0 mi West 16.1 mph - N/A   Overcast
5:04 AM 46.4 °F 39.8 °F 35.6 °F 66% 29.69 in 10.0 mi West 16.1 mph - N/A   Overcast
5:41 AM 46.4 °F 40.1 °F 35.6 °F 66% 29.70 in 10.0 mi WNW 15.0 mph 23.0 mph N/A   Overcast
5:54 AM 46.9 °F - 34.0 °F 61% 29.71 in 10.0 mi WNW 20.7 mph 28.8 mph N/A   Overcast
6:54 AM 44.1 °F 37.1 °F 32.0 °F 63% 29.75 in 10.0 mi WNW 15.0 mph 24.2 mph N/A   Overcast
7:54 AM 44.1 °F 36.2 °F 30.9 °F 60% 29.79 in 10.0 mi WNW 18.4 mph - N/A   Overcast
8:54 AM 44.1 °F 35.9 °F 30.9 °F 60% 29.83 in 10.0 mi NW 19.6 mph 26.5 mph N/A   Overcast
9:05 AM 44.6 °F 37.8 °F 30.2 °F 57% 29.81 in 10.0 mi WNW 15.0 mph 21.9 mph N/A   Overcast
9:54 AM 45.0 °F 36.9 °F 28.9 °F 53% 29.86 in 10.0 mi NW 20.7 mph 27.6 mph N/A   Overcast
10:54 AM 46.0 °F 39.6 °F 30.0 °F 54% 29.88 in 10.0 mi NW 15.0 mph 23.0 mph N/A   Overcast
11:54 AM 46.9 °F - 28.9 °F 50% 29.91 in 10.0 mi NW 16.1 mph 20.7 mph N/A   Overcast
12:54 PM 48.0 °F - 28.9 °F 48% 29.93 in 10.0 mi NW 12.7 mph 20.7 mph N/A   Overcast
1:54 PM 48.9 °F - 30.0 °F 48% 29.95 in 10.0 mi WNW 15.0 mph 21.9 mph N/A   Overcast
3:54 PM 51.1 °F - 30.0 °F 44% 29.95 in 10.0 mi NNW 13.8 mph 18.4 mph N/A   Mostly Cloudy
4:54 PM 53.1 °F - 30.0 °F 41% 29.96 in 10.0 mi NNW 11.5 mph 17.3 mph N/A   Partly Cloudy
5:54 PM 52.0 °F - 30.0 °F 43% 29.98 in 10.0 mi NNW 10.4 mph - N/A   Scattered Clouds
6:54 PM 50.0 °F - 30.0 °F 46% 30.01 in 10.0 mi NNW 8.1 mph - N/A   Scattered Clouds
7:54 PM 45.0 °F 41.2 °F 28.9 °F 53% 30.03 in 10.0 mi NNE 6.9 mph - N/A   Clear
8:54 PM 42.1 °F 38.4 °F 28.9 °F 60% 30.07 in 10.0 mi North 5.8 mph - N/A   Clear
9:54 PM 41.0 °F - 28.0 °F 60% 30.10 in 10.0 mi Calm Calm - N/A   Clear
10:54 PM 39.0 °F 35.7 °F 28.0 °F 65% 30.10 in 10.0 mi North 4.6 mph - N/A   Clear
11:54 PM 37.9 °F 33.5 °F 27.0 °F 65% 30.10 in 10.0 mi NNE 5.8 mph - N/A   Clear